Regional Weather Roundup
Issued by NWS Cleveland, OH

Home | Current Version | Previous Version | Graphics & Text | Print | Product List | Glossary On
Versions: 1 2 3 4 5 6 7 8 9 10 11 12 13 14 15 16 17 18 19 20 21 22 23 24 25 26 27 28 29 30 31 32 33 34 35 36 37 38 39 40 41 42 43 44 45 46 47 48 49 50
000
ASUS41 KCLE 251312
RWRCLE
OHIO REGIONAL WEATHER ROUNDUP
NATIONAL WEATHER SERVICE WILMINGTON, OH
900 AM EDT TUE JUL 25 2017

NOTE: "FAIR" INDICATES FEW OR NO CLOUDS BELOW 12,000 FEET WITH NO
SIGNIFICANT WEATHER AND/OR OBSTRUCTIONS TO VISIBILITY.

OHZ001>008-015>018-024>027-034-035-043-044-251400-
   NORTHWEST OHIO

CITY           SKY/WX    TMP DP  RH WIND       PRES   REMARKS
DEFIANCE       FAIR     N/A N/A N/A NE5       30.24R
FINDLAY        FAIR      66  54  65 NE6       30.22R
TOLEDO EXPRESS FAIR      64  56  75 NE6       30.23R
TOLEDO EXEC    FAIR      68  59  73 N5        30.23R
LIMA           FAIR      63  58  83 NE5       30.22R
$$

OHZ009>014-019>023-028>033-038-089-251400-
   NORTHEAST OHIO

CITY           SKY/WX    TMP DP  RH WIND       PRES   REMARKS
CLE-HOPKINS    CLOUDY    68  57  68 N12       30.21R
CLE-LAKEFRONT  CLOUDY    67  57  70 N12       30.19R
CUY CO. ARPT   CLOUDY    66  59  77 NE6       30.19R
LORAIN-ELYRIA  PTSUNNY   65  53  65 N7        30.21R
ASHTABULA      CLOUDY    64  59  83 CALM      30.19R
AKRON-CANTON   CLOUDY    66  55  67 N5        30.19R
WOOSTER        CLOUDY    64  57  78 N7        30.21R
MANSFIELD      CLOUDY    63  58  83 CALM      30.22R
YOUNGSTOWN     CLOUDY    63  58  83 W5        30.19R
$$

OHZ042-051>053-060>062-070>072-077>081-251400-
  SOUTHWEST OHIO

CITY           SKY/WX    TMP DP  RH WIND       PRES   REMARKS
CINC-COVINGTON FAIR      68  60  75 E10       30.20R
CINC-LUNKEN    FAIR      68  63  84 NE6       30.21R
HAMILTON       FAIR      68  62  81 E3        30.22R
DAYTON         FAIR      66  59  78 NE3       30.23R
WRIGHT-PAT AFB FAIR      65  62  87 NE3       30.22R
DAYTON GENERAL FAIR      66  58  75 E3        30.21R
WILMINGTON     FAIR      65  61  87 E6        30.21R
$$

OHZ036-037-039>041-045>050-054>059-063>069-073>076-082>088-251400-
  CENTRAL AND SOUTHEAST OHIO

CITY           SKY/WX    TMP DP  RH WIND       PRES   REMARKS
COLUMBUS       FAIR      66  59  78 NE7       30.21R
OSU AIRPORT    FAIR      65  60  84 NE5       30.22R
BOLTON FIELD   SUNNY     64  59  82 NE3       30.22R
RICKENBACK AFB FAIR      65  59  81 NE8       30.21R
NEWARK         CLOUDY    63  59  87 CALM      30.20R
MARION         PTSUNNY   64  58  80 N5        30.23R
LANCASTER      PTSUNNY   64  59  83 NE3       30.22R
ZANESVILLE     CLOUDY    64  58  80 NW5       30.19R
NEW PHILLY     CLOUDY    65  59  81 N7        30.19S
$$




USA.gov is the U.S. government's official web portal to all federal, state and local government web resources and services.